TimeCST,TemperatureF,Dew PointF,Humidity,Sea Level PressureIn,VisibilityMPH,Wind Direction,Wind SpeedMPH,Gust SpeedMPH,PrecipitationIn,Events,Conditions,WindDirDegrees,DateUTC
12:52 AM,21.9,12.9,68,30.64,10.0,NNW,9.2,-,N/A,,Clear,340,2013-11-12 06:52:00
1:52 AM,21.9,12.9,68,30.66,10.0,NNW,8.1,-,N/A,,Clear,330,2013-11-12 07:52:00
2:52 AM,21.0,12.0,68,30.68,10.0,NNW,9.2,-,N/A,,Clear,330,2013-11-12 08:52:00
3:52 AM,19.9,12.0,71,30.71,10.0,NNW,8.1,-,N/A,,Clear,330,2013-11-12 09:52:00
4:52 AM,19.0,10.9,71,30.73,10.0,NNW,6.9,-,N/A,,Clear,330,2013-11-12 10:52:00
5:52 AM,19.0,10.9,71,30.76,10.0,Variable,4.6,-,N/A,,Clear,0,2013-11-12 11:52:00
6:52 AM,18.0,10.9,74,30.77,10.0,North,4.6,-,N/A,,Clear,350,2013-11-12 12:52:00
7:52 AM,21.0,12.0,68,30.79,10.0,NNW,6.9,-,N/A,,Clear,340,2013-11-12 13:52:00
8:52 AM,23.0,12.9,65,30.81,10.0,NNW,9.2,-,N/A,,Clear,340,2013-11-12 14:52:00
9:52 AM,25.0,15.1,66,30.80,10.0,NW,8.1,-,N/A,,Clear,320,2013-11-12 15:52:00
10:52 AM,28.0,18.0,66,30.80,10.0,NW,8.1,-,N/A,,Clear,310,2013-11-12 16:52:00
11:52 AM,28.9,17.1,61,30.79,10.0,WNW,12.7,-,N/A,,Clear,290,2013-11-12 17:52:00
12:52 PM,30.0,16.0,56,30.76,10.0,NW,15.0,-,N/A,,Clear,310,2013-11-12 18:52:00
1:52 PM,30.9,15.1,52,30.76,10.0,NW,11.5,-,N/A,,Clear,310,2013-11-12 19:52:00
2:52 PM,30.0,14.0,51,30.74,10.0,WNW,6.9,-,N/A,,Clear,290,2013-11-12 20:52:00
3:52 PM,28.9,12.9,51,30.73,10.0,WNW,8.1,-,N/A,,Clear,290,2013-11-12 21:52:00
4:52 PM,27.0,12.9,56,30.72,10.0,NW,9.2,-,N/A,,Clear,310,2013-11-12 22:52:00
5:52 PM,26.1,14.0,60,30.72,10.0,WNW,3.5,-,N/A,,Clear,290,2013-11-12 23:52:00
6:52 PM,25.0,14.0,63,30.72,10.0,WNW,6.9,-,N/A,,Clear,300,2013-11-13 00:52:00
7:52 PM,21.0,14.0,74,30.69,10.0,SSW,3.5,-,N/A,,Clear,210,2013-11-13 01:52:00
8:52 PM,19.9,14.0,78,30.69,10.0,Calm,Calm,-,N/A,,Clear,0,2013-11-13 02:52:00
9:52 PM,19.9,14.0,78,30.70,10.0,SW,4.6,-,N/A,,Clear,230,2013-11-13 03:52:00
10:52 PM,19.0,12.9,77,30.68,10.0,SW,4.6,-,N/A,,Clear,230,2013-11-13 04:52:00
11:52 PM,19.0,12.0,74,30.66,10.0,SW,4.6,-,N/A,,Clear,230,2013-11-13 05:52:00